EW8714 Weather Reports


Display with metric or nautical units.
time (UTC)temp
F
wind
direction
speed
MPH
gust
MPH
rain 1hr
in
rain 24hr
in
rain mn
in
humidity
%
barometer
mb
20260831212523 82 103 3.0 9.0 0.00 0.00 0.00 33 1019.7
20260831212021 83 60 4.0 9.0 0.00 0.00 0.00 31 1019.7
20260831211524 83 44 4.0 9.0 0.00 0.00 0.00 31 1019.8
20260831211023 83 55 3.0 9.0 0.00 0.00 0.00 31 1019.9
20260831210523 82 50 3.0 7.0 0.00 0.00 0.00 31 1019.9
20260831210023 82 32 3.0 7.0 0.00 0.00 0.00 31 1020.0
20260831205522 82 63 2.0 4.0 0.00 0.01 0.00 32 1020.1
20260831205025 82 63 1.0 6.0 0.00 0.01 0.00 32 1020.2
20260831204506 82 94 1.0 5.0 0.00 0.01 0.00 36 1020.3
20260831204005 81 97 2.0 5.0 0.00 0.01 0.00 34 1020.4
20260831203504 81 105 2.0 5.0 0.00 0.01 0.00 34 1020.5
20260831203006 81 106 1.0 5.0 0.00 0.01 0.00 33 1020.6
20260831202506 81 106 1.0 6.0 0.00 0.01 0.00 35 1020.6
20260831202004 81 108 2.0 6.0 0.00 0.01 0.00 33 1020.6
20260831201505 81 92 2.0 7.0 0.00 0.01 0.00 35 1020.8
20260831201004 81 91 3.0 7.0 0.00 0.01 0.00 34 1020.9
20260831200504 81 87 2.0 5.0 0.00 0.01 0.00 33 1020.8
20260831200008 81 110 2.0 6.0 0.00 0.01 0.00 36 1020.8
20260831195510 81 112 3.0 6.0 0.00 0.01 0.00 33 1020.9
20260831195007 82 121 2.0 4.0 0.00 0.01 0.00 31 1020.9
20260831194507 81 121 2.0 4.0 0.00 0.01 0.00 32 1021.0
20260831194008 81 122 2.0 4.0 0.00 0.01 0.00 33 1021.1
20260831193506 81 120 1.0 4.0 0.00 0.01 0.00 34 1021.1
20260831193012 81 119 2.0 4.0 0.00 0.01 0.00 32 1021.2
20260831192513 80 115 0.0 2.0 0.00 0.01 0.00 34 1021.3
20260831192009 80 115 1.0 3.0 0.00 0.01 0.00 33 1021.4
20260831191519 80 124 0.0 3.0 0.00 0.01 0.00 35 1021.5
20260831191008 79 124 1.0 5.0 0.00 0.01 0.00 35 1021.5
20260831190507 79 124 2.0 5.0 0.00 0.01 0.00 34 1021.6
20260831190005 79 125 1.0 3.0 0.00 0.01 0.00 35 1021.7
20260831185508 79 126 1.0 4.0 0.00 0.01 0.00 34 1021.7
20260831185006 79 125 2.0 5.0 0.00 0.01 0.00 36 1021.8
20260831184512 79 126 1.0 5.0 0.00 0.01 0.00 34 1021.7
20260831184013 79 150 1.0 5.0 0.00 0.01 0.00 35 1021.8
20260831183512 79 204 1.0 6.0 0.00 0.01 0.00 34 1021.8
20260831183010 79 204 3.0 6.0 0.00 0.01 0.00 33 1021.8
20260831182513 79 203 1.0 3.0 0.00 0.01 0.00 34 1021.8
20260831182009 79 205 1.0 4.0 0.00 0.01 0.00 34 1021.9
20260831181512 78 205 0.0 4.0 0.00 0.01 0.00 34 1022.0
20260831181012 78 205 0.0 5.0 0.00 0.01 0.00 35 1022.0
20260831180512 78 206 0.0 5.0 0.00 0.01 0.00 34 1022.0
20260831180011 78 186 3.0 5.0 0.00 0.01 0.00 35 1022.1
20260831175511 78 90 1.0 3.0 0.00 0.01 0.00 35 1022.1
20260831175011 77 88 1.0 4.0 0.00 0.01 0.00 37 1022.1
20260831174507 77 87 1.0 4.0 0.00 0.01 0.00 37 1022.1
20260831174007 77 84 1.0 5.0 0.00 0.01 0.00 36 1022.2
20260831173505 77 84 1.0 5.0 0.00 0.01 0.00 38 1022.2
20260831173015 77 84 1.0 4.0 0.00 0.01 0.00 37 1022.2
20260831172510 77 84 2.0 5.0 0.00 0.01 0.00 39 1022.2
20260831172014 76 49 3.0 5.0 0.00 0.01 0.00 40 1022.2
20260831171514 76 99 3.0 6.0 0.00 0.01 0.00 42 1022.2
20260831171011 76 100 4.0 6.0 0.00 0.01 0.00 40 1022.3
20260831170509 76 92 2.0 5.0 0.00 0.01 0.00 38 1022.4
20260831170016 77 84 4.0 5.0 0.00 0.01 0.00 42 1022.3
20260831165511 77 65 1.0 5.0 0.00 0.01 0.00 42 1022.4
20260831165008 77 62 1.0 4.0 0.00 0.01 0.00 43 1022.3
20260831164513 77 65 2.0 5.0 0.00 0.01 0.00 42 1022.2
20260831164013 77 66 2.0 5.0 0.00 0.01 0.00 44 1022.2
20260831163511 78 1 1.0 3.0 0.00 0.01 0.00 39 1022.2
20260831163010 78 1 1.0 3.0 0.00 0.01 0.00 41 1022.2
20260831162508 78 1 1.0 3.0 0.00 0.01 0.00 41 1022.0
20260831162008 77 1 0.0 2.0 0.00 0.01 0.00 41 1022.0
20260831161509 77 1 1.0 3.0 0.00 0.01 0.00 38 1022.0
20260831161009 77 1 1.0 3.0 0.00 0.01 0.00 39 1022.0
20260831160509 77 1 1.0 5.0 0.00 0.01 0.00 39 1022.0
20260831160009 77 1 0.0 5.0 0.00 0.01 0.00 39 1022.0
20260831155511 78 281 1.0 4.0 0.00 0.01 0.00 39 1021.9
20260831155009 78 278 1.0 4.0 0.00 0.01 0.00 40 1021.8
20260831154511 78 276 1.0 3.0 0.00 0.01 0.00 39 1021.8
20260831154012 78 270 0.0 3.0 0.00 0.01 0.00 38 1021.9
20260831153515 78 269 1.0 3.0 0.00 0.01 0.00 40 1021.9
20260831153014 77 268 0.0 3.0 0.00 0.01 0.00 41 1021.8
20260831152512 76 268 1.0 5.0 0.00 0.01 0.00 43 1021.8
20260831152011 75 267 0.0 5.0 0.00 0.01 0.00 46 1021.8
20260831151511 74 266 2.0 5.0 0.00 0.01 0.00 46 1021.8
20260831151010 73 263 1.0 5.0 0.00 0.01 0.00 48 1021.8
20260831150513 73 260 3.0 5.0 0.00 0.01 0.00 47 1021.8
20260831150015 73 225 2.0 5.0 0.00 0.01 0.00 50 1021.9
20260831145512 72 220 2.0 5.0 0.00 0.01 0.00 51 1021.9
20260831145011 71 219 3.0 5.0 0.00 0.01 0.00 53 1021.9
20260831144511 70 141 2.0 4.0 0.00 0.01 0.00 55 1021.9
20260831144011 69 122 2.0 4.0 0.00 0.01 0.00 57 1021.8
20260831143511 68 105 1.0 3.0 0.00 0.01 0.00 59 1021.8
20260831143010 68 105 1.0 3.0 0.00 0.01 0.00 59 1021.7
20260831142509 68 104 0.0 2.0 0.00 0.01 0.00 59 1021.6
20260831142009 68 150 0.0 3.0 0.00 0.01 0.00 60 1021.6
20260831141514 67 161 0.0 4.0 0.00 0.01 0.00 60 1021.5
20260831141013 67 161 1.0 4.0 0.00 0.01 0.00 62 1021.6
20260831140514 67 151 2.0 4.0 0.00 0.01 0.00 63 1021.6
20260831140015 66 150 1.0 3.0 0.00 0.01 0.00 63 1021.6
20260831135513 66 150 1.0 3.0 0.00 0.01 0.00 63 1021.5
20260831135013 66 150 1.0 3.0 0.00 0.01 0.00 63 1021.4
20260831134518 66 150 1.0 2.0 0.00 0.01 0.00 62 1021.5
20260831134014 66 150 0.0 3.0 0.00 0.01 0.00 62 1021.4
20260831133513 66 150 1.0 3.0 0.00 0.01 0.00 63 1021.2
20260831133027 66 150 1.0 2.0 0.00 0.01 0.00 62 1021.2
20260831132519 66 150 0.0 3.0 0.00 0.01 0.00 62 1021.0
20260831132018 65 150 1.0 3.0 0.00 0.01 0.00 62 1021.0
20260831131517 65 150 0.0 5.0 0.00 0.01 0.00 63 1020.9
20260831131015 65 150 2.0 5.0 0.00 0.01 0.00 63 1020.8
20260831130514 64 115 2.0 4.0 0.00 0.01 0.00 63 1020.7
20260831130019 64 114 1.0 3.0 0.00 0.01 0.00 64 1020.7
20260831125523 64 113 0.0 2.0 0.00 0.01 0.00 64 1020.7
20260831125021 64 113 0.0 4.0 0.00 0.01 0.00 64 1020.6
20260831124536 63 113 1.0 4.0 0.00 0.01 0.00 65 1020.6
20260831124020 63 112 1.0 4.0 0.00 0.01 0.00 67 1020.4
20260831123516 62 111 3.0 4.0 0.00 0.01 0.00 69 1020.4
20260831123017 61 98 1.0 4.0 0.00 0.01 0.00 71 1020.4
20260831122518 61 95 0.0 3.0 0.00 0.01 0.00 71 1020.4
20260831122018 61 93 0.0 3.0 0.00 0.01 0.00 71 1020.3
20260831121524 61 91 1.0 2.0 0.00 0.01 0.00 72 1020.2
20260831121024 61 91 1.0 3.0 0.00 0.01 0.00 70 1020.2
20260831120526 61 91 1.0 3.0 0.00 0.01 0.00 69 1020.2
20260831120021 62 91 0.0 2.0 0.00 0.01 0.00 67 1020.1
20260831115520 62 91 0.0 1.0 0.00 0.01 0.00 66 1020.2
20260831115023 63 91 0.0 1.0 0.00 0.01 0.00 66 1020.2
20260831114535 63 91 0.0 5.0 0.00 0.01 0.00 65 1020.2
20260831114022 63 91 2.0 5.0 0.00 0.01 0.00 65 1020.3
20260831113521 64 206 0.0 2.0 0.00 0.01 0.00 64 1020.1
20260831113022 64 206 0.0 2.0 0.00 0.01 0.00 64 1019.9
20260831112522 64 206 0.0 2.0 0.00 0.01 0.00 63 1019.9
20260831112021 64 206 0.0 2.0 0.00 0.01 0.00 64 1019.8
20260831111521 64 206 0.0 4.0 0.00 0.01 0.00 64 1019.9
20260831111021 64 206 0.0 7.0 0.00 0.01 0.00 62 1019.7
20260831110521 64 206 3.0 7.0 0.00 0.01 0.00 62 1019.6
20260831110022 64 205 4.0 8.0 0.00 0.01 0.00 62 1019.6
20260831105522 64 207 4.0 8.0 0.00 0.01 0.00 62 1019.6
20260831105024 65 218 4.0 8.0 0.00 0.01 0.00 61 1019.5
20260831104537 65 214 5.0 8.0 0.00 0.01 0.00 61 1019.4
20260831104027 65 212 4.0 8.0 0.00 0.01 0.00 61 1019.4
20260831103526 65 209 4.0 7.0 0.00 0.01 0.00 61 1019.5
20260831103022 66 210 3.0 8.0 0.00 0.01 0.00 61 1019.6
20260831102524 65 210 5.0 8.0 0.00 0.01 0.00 61 1019.6
20260831102021 65 201 4.0 8.0 0.00 0.01 0.00 62 1019.6
20260831101521 65 212 5.0 8.0 0.00 0.01 0.00 63 1019.6
20260831101022 64 214 5.0 8.0 0.00 0.01 0.00 64 1019.6
20260831100521 64 241 1.0 4.0 0.00 0.01 0.00 65 1019.5
20260831100021 64 241 2.0 5.0 0.00 0.01 0.00 66 1019.5
20260831095521 64 242 3.0 5.0 0.00 0.01 0.00 67 1019.5
20260831095021 63 266 2.0 4.0 0.00 0.01 0.00 68 1019.4
20260831094526 63 267 1.0 3.0 0.00 0.01 0.00 69 1019.4
20260831094024 64 267 1.0 3.0 0.00 0.01 0.00 67 1019.4
20260831093528 64 267 2.0 3.0 0.00 0.01 0.00 67 1019.4
20260831093034 64 267 0.0 3.0 0.00 0.01 0.00 67 1019.4
20260831092525 64 267 1.0 4.0 0.00 0.01 0.00 67 1019.3
20260831092027 64 264 1.0 4.0 0.00 0.01 0.00 67 1019.3
20260831091503 64 265 0.0 2.0 0.00 0.01 0.00 66 1019.2
20260831091005 64 265 0.0 2.0 0.00 0.01 0.00 66 1019.2
20260831090503 65 265 0.0 2.0 0.00 0.01 0.00 65 1019.2
20260831090008 65 265 0.0 2.0 0.00 0.01 0.00 64 1019.2
20260831085507 65 265 0.0 1.0 0.00 0.01 0.00 63 1019.0
20260831085005 65 265 0.0 3.0 0.00 0.01 0.00 63 1019.1
20260831084510 65 265 0.0 3.0 0.00 0.01 0.00 63 1019.3
20260831084006 65 265 0.0 4.0 0.00 0.01 0.00 62 1019.4
20260831083504 65 267 0.0 4.0 0.00 0.01 0.00 61 1019.3
20260831083015 65 267 1.0 3.0 0.00 0.01 0.00 61 1019.4
20260831082509 66 267 2.0 3.0 0.00 0.01 0.00 60 1019.4
20260831082009 66 267 0.0 4.0 0.00 0.01 0.00 60 1019.3
20260831081508 65 267 1.0 4.0 0.00 0.01 0.00 60 1019.3
20260831081010 65 268 1.0 3.0 0.00 0.01 0.00 59 1019.4
20260831080507 64 268 0.0 2.0 0.00 0.01 0.00 58 1019.4
20260831080012 64 268 0.0 2.0 0.00 0.01 0.00 57 1019.5
20260831075508 65 268 0.0 3.0 0.00 0.01 0.00 57 1019.6
20260831075007 65 268 1.0 3.0 0.00 0.01 0.00 57 1019.6
20260831074517 65 268 0.0 1.0 0.00 0.01 0.00 57 1019.7
20260831074015 65 268 0.0 3.0 0.00 0.01 0.00 56 1019.8
20260831073512 66 268 0.0 3.0 0.00 0.01 0.00 54 1019.9
20260831073011 66 268 0.0 3.0 0.00 0.01 0.00 54 1019.9
20260831072511 66 268 0.0 4.0 0.00 0.01 0.00 53 1019.9
20260831072014 66 268 2.0 4.0 0.00 0.01 0.00 53 1019.9
20260831071525 66 269 1.0 3.0 0.00 0.01 0.00 52 1020.0
20260831071015 66 269 2.0 3.0 0.00 0.01 0.00 52 1020.1
20260831070515 65 269 1.0 3.0 0.00 0.01 0.00 53 1020.1
20260831070025 65 269 0.0 1.0 0.00 0.01 0.00 54 1020.0
20260831065518 65 269 0.0 2.0 0.00 0.01 0.00 56 1020.1
20260831065017 65 269 0.0 3.0 0.00 0.01 0.00 55 1020.2
20260831064515 65 269 1.0 3.0 0.00 0.01 0.00 55 1020.0
20260831064015 66 269 1.0 3.0 0.00 0.01 0.00 54 1020.0
20260831063512 67 269 1.0 3.0 0.00 0.01 0.00 54 1020.0
20260831063015 68 269 2.0 3.0 0.00 0.01 0.00 49 1020.2
20260831062514 69 269 0.0 2.0 0.00 0.01 0.00 46 1020.3
20260831062014 69 269 0.0 3.0 0.00 0.01 0.00 45 1020.5
20260831061514 70 269 0.0 3.0 0.00 0.01 0.00 46 1020.5
20260831061013 70 269 1.0 4.0 0.00 0.01 0.00 46 1020.5
20260831060511 71 269 0.0 7.0 0.00 0.01 0.00 44 1020.6
20260831060011 71 267 2.0 8.0 0.00 0.01 0.00 42 1020.4
20260831055510 71 264 4.0 9.0 0.00 0.01 0.01 42 1020.5
20260831055010 71 253 5.0 9.0 0.00 0.01 0.01 42 1020.5
20260831054515 72 260 5.0 11.0 0.00 0.01 0.01 42 1020.4
20260831054018 72 257 6.0 11.0 0.00 0.01 0.01 43 1020.4
20260831053517 73 264 6.0 15.0 0.00 0.01 0.01 42 1020.5
20260831053014 73 281 8.0 18.0 0.00 0.01 0.01 41 1020.6
20260831052514 73 256 10.0 18.0 0.00 0.01 0.01 41 1020.7
20260831052014 73 243 11.0 18.0 0.00 0.01 0.01 42 1020.8
20260831051522 72 250 7.0 16.0 0.00 0.01 0.01 45 1020.8
20260831051017 71 252 7.0 13.0 0.00 0.01 0.01 52 1020.9
20260831050517 70 248 7.0 13.0 0.00 0.01 0.01 58 1021.0
20260831050019 69 247 7.0 12.0 0.00 0.01 0.01 62 1021.0
20260831045517 69 250 7.0 12.0 0.00 0.01 0.01 65 1021.0
20260831045020 68 263 5.0 8.0 0.00 0.01 0.01 65 1021.0
20260831044519 68 251 3.0 5.0 0.00 0.01 0.01 65 1020.9
20260831044017 68 226 3.0 5.0 0.00 0.01 0.01 66 1020.8
20260831043519 68 212 0.0 4.0 0.00 0.01 0.01 66 1020.8
20260831043021 68 212 0.0 4.0 0.00 0.01 0.01 65 1020.7
20260831042519 68 207 0.0 5.0 0.00 0.01 0.01 65 1020.5
20260831042019 68 207 0.0 6.0 0.00 0.01 0.01 65 1020.4
20260831041520 68 207 2.0 7.0 0.00 0.01 0.01 65 1020.4
20260831041020 68 211 3.0 6.0 0.00 0.01 0.01 65 1020.4
20260831040519 68 218 2.0 5.0 0.00 0.01 0.01 65 1020.3
20260831040026 68 219 3.0 5.0 0.00 0.01 0.01 65 1020.2
20260831035523 68 222 2.0 5.0 0.00 0.01 0.01 65 1020.2
20260831035023 68 224 2.0 4.0 0.00 0.01 0.01 65 1020.3
20260831034517 67 226 2.0 4.0 0.00 0.01 0.01 66 1020.3
20260831034018 67 227 1.0 4.0 0.00 0.01 0.01 66 1020.2
20260831033518 67 227 2.0 4.0 0.00 0.01 0.01 65 1020.1
20260831033020 67 227 0.0 2.0 0.00 0.01 0.01 65 1020.1
20260831032520 67 227 0.0 2.0 0.00 0.01 0.01 65 1020.0
20260831032018 67 227 0.0 4.0 0.00 0.01 0.01 64 1020.0
20260831031525 67 227 1.0 5.0 0.00 0.01 0.01 63 1020.0
20260831031017 67 227 2.0 6.0 0.00 0.01 0.01 63 1019.9
20260831030517 67 226 3.0 6.0 0.00 0.01 0.01 64 1019.9
20260831030018 67 231 3.0 6.0 0.00 0.01 0.01 62 1020.0
20260831025518 67 229 3.0 7.0 0.00 0.01 0.01 62 1019.9
20260831025019 67 224 4.0 7.0 0.00 0.01 0.01 62 1019.8
20260831024521 68 215 4.0 8.0 0.00 0.01 0.01 62 1019.7
20260831024017 68 212 5.0 8.0 0.00 0.01 0.01 62 1019.7
20260831023517 68 221 4.0 8.0 0.00 0.01 0.01 61 1019.6
20260831023022 68 212 5.0 7.0 0.00 0.01 0.01 62 1019.4
20260831022522 68 199 4.0 8.0 0.00 0.01 0.01 62 1019.4
20260831022021 68 195 4.0 8.0 0.00 0.01 0.01 62 1019.2
20260831021520 67 210 3.0 6.0 0.00 0.01 0.01 63 1019.3
20260831021020 68 209 3.0 7.0 0.00 0.01 0.01 63 1019.3
20260831020520 68 205 4.0 7.0 0.00 0.01 0.01 63 1019.3
20260831020004 68 205 3.0 6.0 0.00 0.01 0.01 63 1019.2
20260831015503 68 216 3.0 6.0 0.00 0.01 0.01 62 1019.3
20260831015006 68 241 2.0 5.0 0.00 0.01 0.01 62 1019.2
20260831014506 68 243 3.0 5.0 0.00 0.01 0.01 61 1019.2
20260831014004 69 165 2.0 4.0 0.00 0.01 0.01 61 1019.2
20260831013507 69 164 2.0 4.0 0.00 0.01 0.01 61 1019.2
20260831013003 70 163 1.0 5.0 0.00 0.01 0.01 60 1019.1
20260831012502 70 162 2.0 5.0 0.00 0.01 0.01 60 1019.1
20260831012002 71 162 2.0 5.0 0.00 0.01 0.01 59 1019.2
20260831011509 71 160 1.0 3.0 0.00 0.01 0.01 57 1019.2
20260831011005 71 160 0.0 3.0 0.00 0.01 0.01 56 1019.1
20260831010505 71 160 1.0 4.0 0.00 0.01 0.01 55 1019.1
20260831010035 72 160 2.0 4.0 0.00 0.01 0.01 54 1019.1
20260831005525 72 179 1.0 3.0 0.00 0.01 0.01 54 1019.1
20260831005025 72 179 0.0 4.0 0.00 0.01 0.01 53 1019.1
20260831004508 73 179 1.0 7.0 0.00 0.01 0.01 52 1019.2
20260831004008 73 178 4.0 7.0 0.00 0.01 0.01 52 1019.2
20260831003508 74 162 2.0 6.0 0.00 0.01 0.01 52 1019.2
20260831003009 74 163 2.0 7.0 0.00 0.01 0.01 51 1019.2
20260831002504 75 190 3.0 7.0 0.00 0.01 0.01 50 1019.1
20260831002007 76 174 3.0 7.0 0.00 0.01 0.01 47 1019.2
20260831001535 76 163 3.0 6.0 0.00 0.01 0.01 44 1019.2
20260831001025 76 144 3.0 6.0 0.00 0.01 0.01 45 1019.2
20260831000525 76 152 1.0 5.0 0.00 0.01 0.01 45 1019.2
20260831000008 76 167 2.0 4.0 0.00 0.01 0.01 46 1019.2
20260830235507 75 215 0.0 1.0 0.00 0.01 0.01 47 1019.3
20260830235007 75 215 0.0 2.0 0.00 0.01 0.01 45 1019.2
20260830234519 75 215 0.0 3.0 0.00 0.01 0.01 47 1019.2
20260830234008 75 215 1.0 3.0 0.00 0.01 0.01 46 1019.2
20260830233507 75 216 0.0 4.0 0.00 0.01 0.01 46 1019.1
20260830233011 75 217 1.0 4.0 0.00 0.01 0.01 46 1019.2
20260830232515 75 219 1.0 3.0 0.00 0.01 0.01 44 1019.2
20260830232015 75 220 2.0 4.0 0.00 0.01 0.01 45 1019.1
20260830231510 75 221 2.0 4.0 0.00 0.01 0.01 44 1019.0
20260830231012 75 226 1.0 4.0 0.00 0.01 0.01 45 1019.1
20260830230513 75 226 2.0 4.0 0.00 0.01 0.01 44 1019.2
20260830230023 75 250 1.0 2.0 0.00 0.01 0.01 46 1019.3
20260830225508 74 250 0.0 2.0 0.00 0.01 0.01 44 1019.2
20260830225010 74 250 0.0 4.0 0.00 0.01 0.01 48 1019.3
20260830224516 73 250 0.0 5.0 0.00 0.01 0.01 49 1019.3
20260830224010 72 250 3.0 7.0 0.00 0.01 0.01 50 1019.4
20260830223510 71 250 3.0 7.0 0.00 0.01 0.01 53 1019.5
20260830223018 70 276 2.0 6.0 0.00 0.01 0.01 56 1019.8
20260830222511 69 276 2.0 6.0 0.00 0.01 0.01 60 1019.8
20260830222013 69 292 2.0 6.0 0.00 0.01 0.01 60 1019.8
20260830221510 69 292 4.0 7.0 0.00 0.01 0.01 60 1019.7
20260830221010 69 292 4.0 9.0 0.00 0.01 0.01 60 1019.9
20260830220510 69 295 4.0 10.0 0.00 0.01 0.01 62 1019.9
20260830220025 69 304 4.0 12.0 0.00 0.01 0.01 62 1020.1
20260830215515 69 284 7.0 12.0 0.00 0.01 0.01 59 1020.2
20260830215012 68 285 8.0 12.0 0.00 0.01 0.01 60 1020.2
20260830214512 69 293 6.0 14.0 0.00 0.01 0.01 61 1020.2
20260830214011 68 289 9.0 15.0 0.00 0.01 0.01 59 1020.3
20260830213512 68 300 9.0 15.0 0.01 0.01 0.01 61 1020.4
20260830213016 67 296 11.0 17.0 0.01 0.01 0.01 63 1020.4